Location: Loiras
(43.7060°N, 3.3963°E)
Time: 01:22:12
(UTC+00:00)

Daily predictions for brighter satellites

Satellite Brightness Start Highest point End
(mag) Time Altitude Azimuth Time Altitude Azimuth Time Altitude Azimuth
Resurs 1-4 Rocket 4.5 01:25:39 10° NNE 01:26:56 18° NNE 01:26:56 18° NNE
CZ-2D R/B 4.4 01:32:13 10° NNE 01:33:36 19° NNE 01:33:36 19° NNE
USA 267 4.5 01:45:12 10° ENE 01:49:37 32° E 01:49:37 32° E
ADEOS II 3.5 02:15:35 10° NNE 02:18:19 32° NNE 02:18:19 32° NNE
IDEFIX/ARIANE 42P 3.8 02:17:56 10° NNE 02:22:24 37° E 02:22:24 37° E
USA 234 4.3 02:20:18 10° E 02:26:16 40° NNE 02:30:47 17° NW
Cosmos 1238 Rocket 4.3 02:28:01 10° N 02:33:17 59° N 02:33:17 59° N
Cosmos 2360 Rocket 4.4 02:33:12 14° SE 02:35:58 20° E 02:39:58 10° NE
H-2A R/B 4.5 02:33:56 10° ESE 02:37:21 22° ENE 02:40:49 10° NNE
Cosmos 1697 Rocket 4.3 02:40:57 24° NNW 02:40:57 24° NNW 02:43:57 10° N
Cosmos 1980 Rocket 3.2 02:47:19 37° NNW 02:47:19 37° NNW 02:51:14 10° NNE
Cosmos 2263 Rocket 3.9 02:43:34 10° NNW 02:45:20 21° NNW 02:45:20 21° NNW
ASTEX 1 4.1 02:47:43 10° N 02:51:25 50° N 02:51:25 50° N
Cosmos 2322 Rocket 2.7 02:54:20 49° SE 02:55:11 54° ESE 03:00:44 10° NNE
Cosmos 1898 Rocket 3.9 02:52:30 10° NNW 02:57:44 62° ENE 03:02:58 10° SSE
Cosmos 1666 4.5 02:56:34 10° N 02:59:07 30° NE 02:59:07 30° NE
Spot 4 Rocket 4.1 02:55:48 10° NNE 03:00:57 74° ESE 03:01:00 74° ESE
Lacrosse 5 3.5 03:01:39 23° NNW 03:01:45 23° NNW 03:05:48 10° NE
Meteor 1-11 Rocket 4.4 02:56:35 10° N 03:02:13 53° ENE 03:07:41 10° SSE
Cosmos 1812 4.5 03:08:14 27° N 03:08:14 27° N 03:10:03 10° N
SL-16 R/B 2.1 03:06:39 73° S 03:07:11 82° ESE 03:12:53 10° NNE
Resurs 1-4 Rocket 4.3 03:07:13 10° NNW 03:08:01 12° NNW 03:08:01 12° NNW
IRIDIUM 104 4.4 03:07:41 10° N 03:12:55 73° E 03:15:23 32° SSE
Cosmos 1727 Rocket 4.2 03:09:26 27° S 03:13:02 71° E 03:19:20 10° NNE
Cosmos 1339 Rocket 4.3 03:12:47 65° WSW 03:13:25 69° W 03:19:36 10° N
CZ-2D R/B 4.4 03:14:20 10° NNW 03:14:55 11° NW 03:14:55 11° NW
Cosmos 1937 Rocket 3.7 03:12:07 10° NNW 03:17:15 66° ENE 03:22:21 10° SSE
CZ-4C R/B 4.4 03:20:02 35° NNE 03:20:02 35° NNE 03:22:20 10° N
Cosmos 841 Rocket 4.2 03:18:31 28° SSE 03:21:00 51° ESE 03:26:06 10° NNE
IRIDIUM 114 4.2 03:16:49 10° N 03:22:04 87° E 03:24:29 33° S
Cosmos 1536 3.5 03:21:12 10° N 03:25:13 53° E 03:29:11 10° SSE
Cosmos 1763 Rocket 3.4 03:25:16 65° SW 03:25:56 76° WNW 03:31:16 10° NNE
CZ-2D R/B 4.2 03:24:15 10° N 03:27:24 42° NNW 03:27:24 42° NNW
USA 32 4.2 03:25:13 10° N 03:30:29 74° E 03:35:44 10° S
ARIANE 5 R/B 3.1 03:26:13 10° N 03:30:25 40° NW 03:30:25 40° NW
IRIDIUM 103 4.2 03:25:59 10° N 03:31:13 78° W 03:33:37 33° S
NOSS 3-4 (A) 4.0 03:25:24 10° NW 03:32:27 78° NE 03:40:16 10° SE
NOSS 3-4 (C) 4.0 03:25:30 10° NW 03:32:34 78° NE 03:40:23 10° SE
Cosmos 1707 Rocket 3.4 03:32:27 62° S 03:33:09 88° E 03:37:32 10° N
USA 267 3.3 03:27:56 10° NE 03:34:27 71° NW 03:36:57 40° WSW
ADEOS Rocket 3.7 03:30:43 10° SSE 03:37:08 56° ENE 03:42:57 10° N
CZ-4B R/B 3.9 03:37:30 10° ESE 03:40:04 23° ENE 03:42:43 10° NNE
ERS-2 3.0 03:37:42 10° SSE 03:41:14 49° ENE 03:44:48 10° N
Cosmos 540 Rocket 3.5 03:38:54 29° S 03:41:35 78° ESE 03:46:46 10° NNE
Meteor 1-5 Rocket 4.3 03:36:37 10° NNW 03:41:42 46° W 03:42:00 45° WSW
MSX 3.8 03:40:17 10° N 03:45:59 61° WNW 03:48:33 33° SW
Cosmos 44 Rocket 3.1 03:44:48 46° SW 03:46:15 87° NW 03:51:08 10° NNE
Cosmos 1733 Rocket 3.2 03:44:07 10° N 03:48:28 73° E 03:52:46 10° SSE
IRIDIUM 106 4.4 03:44:24 10° NNW 03:49:29 53° W 03:51:58 28° SSW
Cosmos 1743 4.1 03:47:27 10° N 03:51:04 40° ENE 03:54:40 10° SSE
Cosmos 990 Rocket 4.3 03:46:30 10° NW 03:51:22 40° WSW 03:56:12 10° S
PAYLOAD A 3.7 03:48:50 10° NNE 03:53:32 88° WNW 03:57:13 17° SSW
Landsat 5 3.6 03:50:17 10° S 03:54:43 59° WSW 03:59:08 10° NNW
Cosmos 2333 Rocket 3.7 03:50:08 10° S 03:55:19 36° ESE 04:00:31 10° NE
ATLAS 2AS CENTAUR R/B 2.8 03:48:45 10° NW 03:56:15 89° NE 04:03:07 10° SE
Cosmos 2173 Rocket 4.0 03:50:23 10° N 03:56:46 89° ENE 04:03:09 10° S
BREEZE M DEB (TANK) 3.8 03:45:08 10° WNW 03:58:17 52° SW 04:02:23 10° SSE
SL-4 R/B 2.8 03:57:30 34° WNW 03:59:01 49° NNW 04:03:40 10° NE
CZ-2C R/B 3.4 03:55:38 10° N 03:58:54 35° WNW 03:58:54 35° WNW
ADEOS II 4.0 03:57:23 10° NNW 03:59:15 13° NW 03:59:15 13° NW
Cosmos 1570 Rocket 4.0 03:58:30 23° SSW 04:01:51 73° WNW 04:07:14 10° NNE
IDEFIX/ARIANE 42P 3.4 03:57:45 10° N 04:02:17 30° WNW 04:03:12 28° W
PSLV R/B 3.3 03:58:38 10° N 04:02:50 75° WNW 04:05:43 19° SSW
BREEZE-M DEB (TANK) 2.9 03:59:36 27° WSW 04:03:23 85° SSE 04:06:29 10° ENE
USA 276 2.7 04:03:18 33° NW 04:04:28 54° NNE 04:07:37 10° ESE
Cosmos 1862 Rocket 3.4 04:03:39 10° S 04:08:01 81° W 04:12:23 10° N
USA 234 3.2 04:02:21 10° SE 04:08:55 85° SW 04:15:30 10° NW
BREEZE-M DEB (TANK) 3.8 04:08:00 27° WNW 04:09:32 47° N 04:17:10 10° ENE
H-2A R/B 2.5 04:08:57 10° SSW 04:13:03 39° W 04:17:17 10° NNW
CZ-4C R/B 3.8 04:06:54 10° NNW 04:13:51 52° NE 04:21:51 10° ESE
SAR-Lupe-4 4.4 04:10:42 10° SSE 04:14:12 53° ENE 04:17:43 10° N
ALOS 3.0 04:12:07 10° NNE 04:16:43 54° E 04:21:16 10° S
PKM 3.7 04:14:43 15° NW 04:17:37 77° SW 04:21:41 10° SE
Cosmos 2333 4.5 04:12:28 10° SSW 04:18:13 72° ESE 04:23:59 10° NNE
FENGYUN 3A 4.2 04:13:45 10° NNE 04:19:06 60° E 04:24:26 10° S
Cosmos 2360 Rocket 2.2 04:15:02 17° SW 04:19:26 62° WNW 04:25:04 10° NNE
CZ-2C R/B 2.7 04:19:26 10° N 04:24:28 53° WNW 04:29:30 10° SSW
Cosmos 1975 4.1 04:20:43 10° N 04:24:35 44° ENE 04:28:24 10° SSE
Cosmos 372 Rocket 3.9 04:23:16 10° NNW 04:28:20 61° WSW 04:33:21 10° S
Cosmos 2016 Rocket 3.9 04:22:26 10° N 04:28:33 78° W 04:34:37 10° S
SAR-Lupe-1 4.0 04:29:40 10° SSE 04:33:15 87° ENE 04:36:51 10° NNW
Cosmos 1484 Rocket 2.9 04:29:58 10° NNE 04:33:59 87° ESE 04:37:59 10° SSW
Cosmos 2061 Rocket 4.0 04:28:59 10° NNW 04:35:25 71° W 04:41:46 10° S
ATLAS CENTAUR Rocket 4.3 04:28:24 15° WSW 04:35:31 25° SSW 04:39:45 10° SSE
Cosmos 1515 3.7 04:32:41 10° S 04:36:28 87° E 04:40:16 10° N
X-37B 2.7 04:36:50 13° SW 04:36:52 13° SW 04:38:22 10° S
Cosmos 1844 Rocket 2.7 04:31:47 10° NNW 04:37:20 57° WSW 04:42:50 10° S
Cosmos 2233 Rocket 4.4 04:32:07 10° N 04:38:16 68° E 04:44:22 10° SSE
Cosmos 2322 Rocket 3.3 04:36:12 16° W 04:39:33 26° NW 04:44:20 10° N
Cosmos 2278 Rocket 3.9 04:36:59 10° N 04:42:09 35° NE 04:47:17 10° ESE
Okean 1 3.4 04:40:31 10° SSW 04:44:29 56° W 04:48:29 10° N
Cosmos 1844 3.7 04:40:39 10° NNW 04:46:07 60° WSW 04:51:34 10° S
Lacrosse 5 4.0 04:42:49 10° NW 04:46:18 18° N 04:49:48 10° NE
Meteor 1-31 Rocket 2.7 04:43:01 10° N 04:46:53 83° W 04:50:44 10° SSW
COSMO-SKYMED 1 3.2 04:42:39 10° SSE 04:46:56 62° ENE 04:51:14 10° N
Cosmos 1864 Rocket 4.5 04:43:48 10° NNW 04:49:57 63° W 04:56:01 10° S
Cosmos 1725 Rocket 4.0 04:45:06 10° NNW 04:51:12 63° W 04:57:17 10° S
Cosmos 1437 Rocket 3.3 04:47:47 10° SW 04:51:20 37° WNW 04:54:57 10° N
Meteor 2-9 Rocket 4.1 04:46:28 10° N 04:51:58 86° W 04:57:18 10° S
SL-16 R/B 3.7 04:48:33 12° W 04:52:00 19° NW 04:55:58 10° N
Cosmos 2298 Rocket 4.1 04:47:58 10° NNW 04:53:10 55° WSW 04:58:19 10° S
deb Chang Zheng 4 3.8 04:49:44 10° N 04:53:51 48° WNW 04:57:57 10° SW
SJ-12 4.2 04:50:05 10° NNE 04:54:14 73° ESE 04:58:21 10° S
Cosmos 1782 Rocket 3.6 04:57:51 10° N 05:02:21 87° W 05:06:48 10° S
Cosmos 1908 Rocket 3.9 04:59:16 10° NNW 05:03:33 46° W 05:07:48 10° SSW
Cosmos 1703 Rocket 3.6 05:00:06 10° SSW 05:04:21 57° W 05:08:39 10° N
Okean 1-7 3.0 05:00:45 10° SSW 05:04:56 61° W 05:09:10 10° N
Cosmos 2219 Rocket 2.2 05:01:40 10° SSW 05:07:18 69° WNW 05:13:00 10° NNE
Intercosmos 25 4.2 05:06:55 10° SW 05:09:51 22° WNW 05:12:29 10° NNW
CZ-4B R/B 2.5 05:06:52 10° N 05:10:29 75° WNW 05:14:03 10° SSW
Cosmos 1125 Rocket 3.6 05:07:10 10° NNW 05:12:23 61° WSW 05:17:31 10° S
